"datetime","temp","dp","rain_mm","uv","solar","mb","wind_mph","gust_mph","windchill","rh"
"2021-03-16 00:00:00",5.2,4.2,0.0,0.0,0,1025.5,0,1,"",93
"2021-03-16 00:01:00",5.2,4.2,0.0,0.0,0,1025.5,1,1,"",93
"2021-03-16 00:02:00",5.2,4.2,0.0,0.0,0,1025.5,1,2,"",93
"2021-03-16 00:03:00",5.2,4.2,0.0,0.0,0,1025.6,1,2,"",93
"2021-03-16 00:04:00",5.2,4.2,0.0,0.0,0,1025.5,1,1,"",93
"2021-03-16 00:05:00",5.2,4.2,0.0,0.0,0,1025.5,1,2,"",93
"2021-03-16 00:06:00",5.2,4.2,0.0,0.0,0,1025.5,1,2,"",93
"2021-03-16 00:07:00",5.2,4.2,0.0,0.0,0,1025.5,1,2,"",93
"2021-03-16 00:08:00",5.2,4.2,0.0,0.0,0,1025.5,1,1,"",93
"2021-03-16 00:09:00",5.2,4.2,0.0,0.0,0,1025.5,0,1,"",93
"2021-03-16 00:10:00",5.2,4.2,0.0,0.0,0,1025.5,0,1,"",93
"2021-03-16 00:11:00",5.2,4.2,0.0,0.0,0,1025.5,0,1,"",93
"2021-03-16 00:12:00",5.2,4.2,0.0,0.0,0,1025.5,0,0,"",93
"2021-03-16 00:13:00",5.2,4.2,0.0,0.0,0,1025.6,0,1,"",93
"2021-03-16 00:14:00",5.2,4.2,0.0,0.0,0,1025.6,0,1,"",93
"2021-03-16 00:15:00",5.2,4.2,0.0,0.0,0,1025.6,0,1,"",93
"2021-03-16 00:16:00",5.2,4.2,0.0,0.0,0,1025.6,0,1,"",93
"2021-03-16 00:17:00",5.2,4.2,0.0,0.0,0,1025.5,1,2,"",93
"2021-03-16 00:18:00",5.2,4.2,0.0,0.0,0,1025.6,1,2,"",93
"2021-03-16 00:19:00",5.2,4.2,0.0,0.0,0,1025.6,1,2,"",93
"2021-03-16 00:20:00",5.2,4.2,0.0,0.0,0,1025.6,0,1,"",93
"2021-03-16 00:21:00",5.2,4.2,0.0,0.0,0,1025.6,1,1,"",93
"2021-03-16 00:22:00",5.2,4.2,0.0,0.0,0,1025.6,1,2,"",93
"2021-03-16 00:23:00",5.2,4.2,0.0,0.0,0,1025.6,1,2,"",93
"2021-03-16 00:24:00",5.2,4.2,0.0,0.0,0,1025.6,1,2,"",93
"2021-03-16 00:25:00",5.2,4.2,0.0,0.0,0,1025.5,1,2,"",93
"2021-03-16 00:26:00",5.2,4.2,0.0,0.0,0,1025.6,1,2,"",93
"2021-03-16 00:27:00",5.2,4.2,0.0,0.0,0,1025.6,1,2,"",93
"2021-03-16 00:28:00",5.2,4.2,0.0,0.0,0,1025.6,1,2,"",93
"2021-03-16 00:29:00",5.2,4.2,0.0,0.0,0,1025.6,1,2,"",93
"2021-03-16 00:30:00",5.1,4.1,0.0,0.0,0,1025.6,1,1,"",93
"2021-03-16 00:31:00",5.2,4.2,0.0,0.0,0,1025.6,1,2,"",93
"2021-03-16 00:32:00",5.2,4.2,0.0,0.0,0,1025.7,1,1,"",93
"2021-03-16 00:33:00",5.2,4.2,0.0,0.0,0,1025.7,1,1,"",93
"2021-03-16 00:34:00",5.2,4.2,0.0,0.0,0,1025.7,1,1,"",93
"2021-03-16 00:35:00",5.2,4.2,0.0,0.0,0,1025.7,0,1,"",93
"2021-03-16 00:36:00",5.2,4.2,0.0,0.0,0,1025.7,1,2,"",93
"2021-03-16 00:37:00",5.2,4.2,0.0,0.0,0,1025.7,1,1,"",93
"2021-03-16 00:38:00",5.2,4.2,0.0,0.0,0,1025.8,1,1,"",93
"2021-03-16 00:39:00",5.2,4.2,0.0,0.0,0,1025.7,1,1,"",93
"2021-03-16 00:40:00",5.2,4.2,0.0,0.0,0,1025.8,1,1,"",93
"2021-03-16 00:41:00",5.2,4.2,0.0,0.0,0,1025.8,1,1,"",93
"2021-03-16 00:42:00",5.2,4.2,0.0,0.0,0,1025.8,1,1,"",93
"2021-03-16 00:43:00",5.2,4.2,0.0,0.0,0,1025.8,1,1,"",93
"2021-03-16 00:44:00",5.2,4.2,0.0,0.0,0,1025.8,1,1,"",93
"2021-03-16 00:45:00",5.2,4.2,0.0,0.0,0,1025.8,1,1,"",93
"2021-03-16 00:46:00",5.2,4.2,0.0,0.0,0,1025.9,0,1,"",93
"2021-03-16 00:47:00",5.2,4.2,0.0,0.0,0,1025.9,0,1,"",93
"2021-03-16 00:48:00",5.2,4.2,0.0,0.0,0,1025.9,0,1,"",93
"2021-03-16 00:49:00",5.2,4.2,0.0,0.0,0,1025.9,0,1,"",93
"2021-03-16 00:50:00",5.2,4.2,0.0,0.0,0,1025.9,0,1,"",93
"2021-03-16 00:51:00",5.2,4.2,0.0,0.0,0,1025.9,1,1,"",93
"2021-03-16 00:52:00",5.2,4.2,0.0,0.0,0,1025.9,1,2,"",93
"2021-03-16 00:53:00",5.2,4.2,0.0,0.0,0,1025.9,1,2,"",93
"2021-03-16 00:54:00",5.2,4.2,0.0,0.0,0,1025.9,1,1,"",93
"2021-03-16 00:55:00",5.2,4.2,0.0,0.0,0,1025.9,1,1,"",93
"2021-03-16 00:56:00",5.2,4.2,0.0,0.0,0,1025.9,1,1,"",93
"2021-03-16 00:57:00",5.2,4.2,0.0,0.0,0,1025.9,1,1,"",93
"2021-03-16 00:58:00",5.2,4.2,0.0,0.0,0,1025.9,1,2,"",93
"2021-03-16 00:59:00",5.2,4.2,0.0,0.0,0,1025.9,0,1,"",93
"2021-03-16 01:00:00",5.2,4.2,0.0,0.0,0,1026.0,0,1,"",93
"2021-03-16 01:01:00",5.2,4.2,0.0,0.0,0,1025.9,1,2,"",93
"2021-03-16 01:02:00",5.2,4.2,0.0,0.0,0,1025.9,1,2,"",93
"2021-03-16 01:03:00",5.2,4.2,0.0,0.0,0,1025.9,1,2,"",93
"2021-03-16 01:04:00",5.2,4.2,0.0,0.0,0,1025.9,1,2,"",93
"2021-03-16 01:05:00",5.2,4.2,0.0,0.0,0,1025.9,1,1,"",93
"2021-03-16 01:06:00",5.2,4.2,0.0,0.0,0,1025.9,1,1,"",93
"2021-03-16 01:07:00",5.2,4.2,0.0,0.0,0,1025.9,1,2,"",93
"2021-03-16 01:08:00",5.2,4.2,0.0,0.0,0,1026.0,1,2,"",93
"2021-03-16 01:09:00",5.2,4.2,0.0,0.0,0,1026.0,1,2,"",93
"2021-03-16 01:10:00",5.2,4.2,0.0,0.0,0,1026.0,1,2,"",93
"2021-03-16 01:11:00",5.2,4.2,0.0,0.0,0,1026.0,1,2,"",93
"2021-03-16 01:12:00",5.2,4.2,0.0,0.0,0,1026.0,1,1,"",93
"2021-03-16 01:13:00",5.2,4.2,0.0,0.0,0,1026.0,1,2,"",93
"2021-03-16 01:14:00",5.2,4.2,0.0,0.0,0,1026.0,1,2,"",93
"2021-03-16 01:15:00",5.2,4.2,0.0,0.0,0,1026.1,1,2,"",93
"2021-03-16 01:16:00",5.2,4.2,0.0,0.0,0,1026.1,1,2,"",93
"2021-03-16 01:17:00",5.2,4.2,0.0,0.0,0,1026.1,1,2,"",93
"2021-03-16 01:18:00",5.2,4.2,0.0,0.0,0,1026.1,1,2,"",93
"2021-03-16 01:19:00",5.2,4.2,0.0,0.0,0,1026.1,1,2,"",93
"2021-03-16 01:20:00",5.2,4.2,0.0,0.0,0,1026.1,1,2,"",93
"2021-03-16 01:21:00",5.2,4.2,0.0,0.0,0,1026.1,1,2,"",93
"2021-03-16 01:22:00",5.2,4.2,0.0,0.0,0,1026.1,1,2,"",93
"2021-03-16 01:23:00",5.3,4.3,0.0,0.0,0,1026.1,1,2,"",93
"2021-03-16 01:24:00",5.3,4.3,0.0,0.0,0,1026.1,1,2,"",93
"2021-03-16 01:25:00",5.3,4.3,0.0,0.0,0,1026.1,1,2,"",93
"2021-03-16 01:26:00",5.2,4.2,0.0,0.0,0,1026.1,1,2,"",93
"2021-03-16 01:27:00",5.3,4.3,0.0,0.0,0,1026.1,1,2,"",93
"2021-03-16 01:28:00",5.3,4.3,0.0,0.0,0,1026.1,1,2,"",93
"2021-03-16 01:29:00",5.3,4.3,0.0,0.0,0,1026.1,1,2,"",93
"2021-03-16 01:30:00",5.3,4.3,0.0,0.0,0,1026.1,1,2,"",93
"2021-03-16 01:31:00",5.3,4.3,0.0,0.0,0,1026.0,1,2,"",93
"2021-03-16 01:32:00",5.3,4.3,0.0,0.0,0,1026.0,1,1,"",93
"2021-03-16 01:33:00",5.3,4.3,0.0,0.0,0,1026.0,1,2,"",93
"2021-03-16 01:34:00",5.3,4.3,0.0,0.0,0,1026.0,1,2,"",93
"2021-03-16 01:35:00",5.3,4.3,0.0,0.0,0,1026.0,1,1,"",93
"2021-03-16 01:36:00",5.3,4.3,0.0,0.0,0,1026.0,1,1,"",93
"2021-03-16 01:37:00",5.3,4.3,0.0,0.0,0,1026.0,1,1,"",93
"2021-03-16 01:38:00",5.3,4.3,0.0,0.0,0,1026.0,1,2,"",93
"2021-03-16 01:39:00",5.3,4.3,0.0,0.0,0,1026.0,1,2,"",93
"2021-03-16 01:40:00",5.2,4.2,0.0,0.0,0,1026.1,1,2,"",93
"2021-03-16 01:41:00",5.3,4.3,0.0,0.0,0,1026.1,1,2,"",93
"2021-03-16 01:42:00",5.3,4.3,0.0,0.0,0,1026.1,1,1,"",93
"2021-03-16 01:43:00",5.3,4.3,0.0,0.0,0,1026.0,1,2,"",93
"2021-03-16 01:44:00",5.3,4.3,0.0,0.0,0,1026.1,1,2,"",93
"2021-03-16 01:45:00",5.3,4.3,0.0,0.0,0,1026.1,1,2,"",93
"2021-03-16 01:46:00",5.3,4.3,0.0,0.0,0,1026.1,1,2,"",93
"2021-03-16 01:47:00",5.3,4.3,0.0,0.0,0,1026.0,1,2,"",93
"2021-03-16 01:48:00",5.3,4.3,0.0,0.0,0,1026.1,2,2,"",93
"2021-03-16 01:49:00",5.3,4.3,0.0,0.0,0,1026.0,1,2,"",93
"2021-03-16 01:50:00",5.3,4.3,0.0,0.0,0,1026.0,1,2,"",93
"2021-03-16 01:51:00",5.3,4.3,0.0,0.0,0,1026.0,1,2,"",93
"2021-03-16 01:52:00",5.3,4.3,0.0,0.0,0,1026.0,1,2,"",93
"2021-03-16 01:53:00",5.3,4.3,0.0,0.0,0,1026.0,1,2,"",93
"2021-03-16 01:54:00",5.3,4.3,0.0,0.0,0,1025.9,1,2,"",93
"2021-03-16 01:55:00",5.3,4.3,0.0,0.0,0,1025.9,1,2,"",93
"2021-03-16 01:56:00",5.3,4.3,0.0,0.0,0,1026.0,1,2,"",93
"2021-03-16 01:57:00",5.3,4.3,0.0,0.0,0,1026.0,1,2,"",93
"2021-03-16 01:58:00",5.3,4.3,0.0,0.0,0,1025.9,1,2,"",93
"2021-03-16 01:59:00",5.3,4.3,0.0,0.0,0,1025.9,1,2,"",93
"2021-03-16 02:00:00",5.3,4.3,0.0,0.0,0,1025.9,1,2,"",93
"2021-03-16 02:01:00",5.3,4.3,0.0,0.0,0,1025.9,1,2,"",93
"2021-03-16 02:02:00",5.3,4.3,0.0,0.0,0,1025.9,1,2,"",93
"2021-03-16 02:03:00",5.3,4.3,0.0,0.0,0,1025.9,1,2,"",93
"2021-03-16 02:04:00",5.3,4.3,0.0,0.0,0,1025.9,1,2,"",93
"2021-03-16 02:05:00",5.3,4.3,0.0,0.0,0,1025.9,1,2,"",93
"2021-03-16 02:06:00",5.3,4.3,0.0,0.0,0,1025.9,1,2,"",93
"2021-03-16 02:07:00",5.3,4.3,0.0,0.0,0,1025.9,1,2,"",93
"2021-03-16 02:08:00",5.3,4.3,0.0,0.0,0,1025.9,1,1,"",93
"2021-03-16 02:09:00",5.3,4.3,0.0,0.0,0,1025.9,1,1,"",93
"2021-03-16 02:10:00",5.3,4.3,0.0,0.0,0,1026.0,1,1,"",93
"2021-03-16 02:11:00",5.3,4.3,0.0,0.0,0,1025.9,1,1,"",93
"2021-03-16 02:12:00",5.3,4.3,0.0,0.0,0,1025.9,1,1,"",93
"2021-03-16 02:13:00",5.3,4.3,0.0,0.0,0,1026.0,1,1,"",93
"2021-03-16 02:14:00",5.3,4.3,0.0,0.0,0,1025.9,1,1,"",93
"2021-03-16 02:15:00",5.3,4.3,0.0,0.0,0,1025.9,1,1,"",93
"2021-03-16 02:16:00",5.3,4.3,0.0,0.0,0,1025.8,1,1,"",93
"2021-03-16 02:17:00",5.3,4.3,0.0,0.0,0,1025.8,1,1,"",93
"2021-03-16 02:18:00",5.3,4.3,0.0,0.0,0,1025.9,1,1,"",93
"2021-03-16 02:19:00",5.3,4.3,0.0,0.0,0,1025.8,1,1,"",93
"2021-03-16 02:20:00",5.3,4.3,0.0,0.0,0,1025.8,1,1,"",93
"2021-03-16 02:21:00",5.3,4.3,0.0,0.0,0,1025.8,1,1,"",93
"2021-03-16 02:22:00",5.3,4.3,0.0,0.0,0,1025.8,0,1,"",93
"2021-03-16 02:23:00",5.3,4.3,0.0,0.0,0,1025.8,0,1,"",93
"2021-03-16 02:24:00",5.3,4.3,0.0,0.0,0,1025.8,0,1,"",93
"2021-03-16 02:25:00",5.3,4.3,0.0,0.0,0,1025.8,0,1,"",93
"2021-03-16 02:26:00",5.3,4.3,0.0,0.0,0,1025.8,0,0,"",93
"2021-03-16 02:27:00",5.3,4.3,0.0,0.0,0,1025.8,0,0,"",93
"2021-03-16 02:28:00",5.3,4.3,0.0,0.0,0,1025.9,0,0,"",93
"2021-03-16 02:29:00",5.3,4.3,0.0,0.0,0,1025.9,0,1,"",93
"2021-03-16 02:30:00",5.3,4.3,0.0,0.0,0,1025.9,0,0,"",93
"2021-03-16 02:31:00",5.3,4.3,0.0,0.0,0,1025.9,1,1,"",93
"2021-03-16 02:32:00",5.3,4.3,0.0,0.0,0,1025.9,1,2,"",93
"2021-03-16 02:33:00",5.3,4.3,0.0,0.0,0,1025.9,1,2,"",93
"2021-03-16 02:34:00",5.3,4.3,0.0,0.0,0,1025.9,1,2,"",93
"2021-03-16 02:35:00",5.2,4.2,0.0,0.0,0,1025.9,1,2,"",93
"2021-03-16 02:36:00",5.3,4.3,0.0,0.0,0,1026.0,1,1,"",93
"2021-03-16 02:37:00",5.2,4.2,0.0,0.0,0,1025.9,1,1,"",93
"2021-03-16 02:38:00",5.2,4.2,0.0,0.0,0,1025.9,1,1,"",93
"2021-03-16 02:39:00",5.3,4.3,0.0,0.0,0,1025.9,0,1,"",93
"2021-03-16 02:40:00",5.3,4.3,0.0,0.0,0,1025.9,1,1,"",93
"2021-03-16 02:41:00",5.2,4.2,0.0,0.0,0,1025.9,0,1,"",93
"2021-03-16 02:42:00",5.2,4.2,0.0,0.0,0,1025.8,0,1,"",93
"2021-03-16 02:43:00",5.2,4.2,0.0,0.0,0,1025.8,1,1,"",93
"2021-03-16 02:44:00",5.2,4.2,0.0,0.0,0,1025.8,0,0,"",93
"2021-03-16 02:45:00",5.2,4.2,0.0,0.0,0,1025.8,0,1,"",93
"2021-03-16 02:46:00",5.2,4.2,0.0,0.0,0,1025.8,1,2,"",93
"2021-03-16 02:47:00",5.2,4.2,0.0,0.0,0,1025.9,1,2,"",93
"2021-03-16 02:48:00",5.2,4.2,0.0,0.0,0,1025.8,1,2,"",93
"2021-03-16 02:49:00",5.2,4.2,0.0,0.0,0,1025.9,1,1,"",93
"2021-03-16 02:50:00",5.2,4.2,0.0,0.0,0,1025.9,0,1,"",93
"2021-03-16 02:51:00",5.2,4.2,0.0,0.0,0,1025.9,1,2,"",93
"2021-03-16 02:52:00",5.1,4.1,0.0,0.0,0,1025.9,1,2,"",93
"2021-03-16 02:53:00",5.1,4.1,0.0,0.0,0,1025.8,1,2,"",93
"2021-03-16 02:54:00",5.1,4.1,0.0,0.0,0,1025.9,1,2,"",93
"2021-03-16 02:55:00",5.1,4.1,0.0,0.0,0,1025.9,1,2,"",93
"2021-03-16 02:56:00",5.1,4.1,0.0,0.0,0,1025.9,1,1,"",93
"2021-03-16 02:57:00",5.1,4.1,0.0,0.0,0,1025.9,0,1,"",93
"2021-03-16 02:58:00",5.1,4.1,0.0,0.0,0,1025.9,0,1,"",93
"2021-03-16 02:59:00",5.1,4.1,0.0,0.0,0,1025.9,0,1,"",93
"2021-03-16 03:00:00",5.1,4.1,0.0,0.0,0,1026.0,0,1,"",93
"2021-03-16 03:01:00",5.1,4.1,0.0,0.0,0,1026.0,1,1,"",93
"2021-03-16 03:02:00",5.1,4.1,0.0,0.0,0,1026.0,1,2,"",93
"2021-03-16 03:03:00",5.1,4.1,0.0,0.0,0,1025.9,2,2,"",93
"2021-03-16 03:04:00",5.0,4.0,0.0,0.0,0,1025.9,1,2,"",93
"2021-03-16 03:05:00",5.0,4.0,0.0,0.0,0,1025.8,1,2,"",93
"2021-03-16 03:06:00",5.0,3.8,0.0,0.0,0,1025.8,1,2,"",92
"2021-03-16 03:07:00",4.9,3.9,0.0,0.0,0,1025.8,1,1,"",93
"2021-03-16 03:08:00",5.0,3.8,0.0,0.0,0,1025.8,1,1,"",92
"2021-03-16 03:09:00",4.9,3.9,0.0,0.0,0,1025.8,0,1,"",93
"2021-03-16 03:10:00",4.9,3.9,0.0,0.0,0,1025.8,0,1,"",93
"2021-03-16 03:11:00",4.9,3.9,0.0,0.0,0,1025.8,0,1,"",93
"2021-03-16 03:12:00",4.9,3.9,0.0,0.0,0,1025.8,0,0,"",93
"2021-03-16 03:13:00",4.9,3.9,0.0,0.0,0,1025.8,0,0,"",93
"2021-03-16 03:14:00",4.9,3.7,0.0,0.0,0,1025.9,0,0,"",92
"2021-03-16 03:15:00",4.9,3.7,0.0,0.0,0,1025.9,0,1,"",92
"2021-03-16 03:16:00",4.9,3.7,0.0,0.0,0,1025.9,1,1,"",92
"2021-03-16 03:17:00",4.9,3.7,0.0,0.0,0,1025.8,1,1,"",92
"2021-03-16 03:18:00",4.9,3.7,0.0,0.0,0,1025.8,0,1,"",92
"2021-03-16 03:19:00",4.8,3.6,0.0,0.0,0,1025.8,1,2,"",92
"2021-03-16 03:20:00",4.8,3.6,0.0,0.0,0,1025.7,1,2,"",92
"2021-03-16 03:21:00",4.8,3.6,0.0,0.0,0,1025.6,1,1,"",92
"2021-03-16 03:22:00",4.8,3.6,0.0,0.0,0,1025.7,1,1,"",92
"2021-03-16 03:23:00",4.8,3.6,0.0,0.0,0,1025.7,0,1,"",92
"2021-03-16 03:24:00",4.8,3.6,0.0,0.0,0,1025.8,0,0,"",92
"2021-03-16 03:25:00",4.8,3.8,0.0,0.0,0,1025.8,0,1,"",93
"2021-03-16 03:26:00",4.8,3.8,0.0,0.0,0,1025.8,0,1,"",93
"2021-03-16 03:27:00",4.8,3.8,0.0,0.0,0,1025.8,0,1,"",93
"2021-03-16 03:28:00",4.8,3.8,0.0,0.0,0,1025.7,1,2,"",93
"2021-03-16 03:29:00",4.8,3.8,0.0,0.0,0,1025.7,1,1,"",93
"2021-03-16 03:30:00",4.7,3.7,0.0,0.0,0,1025.7,1,1,"",93
"2021-03-16 03:31:00",4.7,3.7,0.0,0.0,0,1025.7,1,1,"",93
"2021-03-16 03:32:00",4.7,3.7,0.0,0.0,0,1025.7,0,1,"",93
"2021-03-16 03:33:00",4.7,3.7,0.0,0.0,0,1025.7,0,1,"",93
"2021-03-16 03:34:00",4.7,3.7,0.0,0.0,0,1025.7,0,1,"",93
"2021-03-16 03:35:00",4.7,3.7,0.0,0.0,0,1025.7,0,1,"",93
"2021-03-16 03:36:00",4.7,3.7,0.0,0.0,0,1025.7,1,1,"",93
"2021-03-16 03:37:00",4.7,3.7,0.0,0.0,0,1025.7,1,2,"",93
"2021-03-16 03:38:00",4.7,3.7,0.0,0.0,0,1025.7,1,1,"",93
"2021-03-16 03:39:00",4.7,3.7,0.0,0.0,0,1025.6,1,2,"",93
"2021-03-16 03:40:00",4.7,3.7,0.0,0.0,0,1025.6,1,2,"",93
"2021-03-16 03:41:00",4.7,3.7,0.0,0.0,0,1025.6,0,1,"",93
"2021-03-16 03:42:00",4.7,3.7,0.0,0.0,0,1025.6,0,1,"",93
"2021-03-16 03:43:00",4.7,3.7,0.0,0.0,0,1025.6,1,1,"",93
"2021-03-16 03:44:00",4.7,3.7,0.0,0.0,0,1025.6,0,1,"",93
"2021-03-16 03:45:00",4.7,3.7,0.0,0.0,0,1025.6,0,0,"",93
"2021-03-16 03:46:00",4.7,3.7,0.0,0.0,0,1025.6,0,1,"",93
"2021-03-16 03:47:00",4.6,3.6,0.0,0.0,0,1025.6,1,1,"",93
"2021-03-16 03:48:00",4.6,3.4,0.0,0.0,0,1025.7,1,2,"",92
"2021-03-16 03:49:00",4.6,3.4,0.0,0.0,0,1025.6,1,1,"",92
"2021-03-16 03:50:00",4.6,3.6,0.0,0.0,0,1025.5,1,1,"",93
"2021-03-16 03:51:00",4.6,3.6,0.0,0.0,0,1025.6,0,1,"",93
"2021-03-16 03:52:00",4.6,3.6,0.0,0.0,0,1025.6,0,1,"",93
"2021-03-16 03:53:00",4.6,3.6,0.0,0.0,0,1025.6,0,1,"",93
"2021-03-16 03:54:00",4.6,3.6,0.0,0.0,0,1025.6,1,2,"",93
"2021-03-16 03:55:00",4.6,3.6,0.0,0.0,0,1025.5,1,2,"",93
"2021-03-16 03:56:00",4.6,3.6,0.0,0.0,0,1025.4,1,2,"",93
"2021-03-16 03:57:00",4.6,3.6,0.0,0.0,0,1025.4,1,1,"",93
"2021-03-16 03:58:00",4.6,3.6,0.0,0.0,0,1025.4,0,1,"",93
"2021-03-16 03:59:00",4.6,3.6,0.0,0.0,0,1025.4,0,1,"",93
"2021-03-16 04:00:00",4.6,3.6,0.0,0.0,0,1025.4,0,1,"",93
"2021-03-16 04:01:00",4.6,3.6,0.0,0.0,0,1025.4,1,1,"",93
"2021-03-16 04:02:00",4.6,3.6,0.0,0.0,0,1025.4,1,1,"",93
"2021-03-16 04:03:00",4.6,3.6,0.0,0.0,0,1025.4,1,1,"",93
"2021-03-16 04:04:00",4.6,3.6,0.0,0.0,0,1025.3,1,1,"",93
"2021-03-16 04:05:00",4.6,3.6,0.0,0.0,0,1025.3,1,1,"",93
"2021-03-16 04:06:00",4.6,3.6,0.0,0.0,0,1025.3,1,1,"",93
"2021-03-16 04:07:00",4.6,3.6,0.0,0.0,0,1025.3,1,2,"",93
"2021-03-16 04:08:00",4.6,3.6,0.0,0.0,0,1025.3,1,2,"",93
"2021-03-16 04:09:00",4.6,3.6,0.0,0.0,0,1025.3,1,1,"",93
"2021-03-16 04:10:00",4.6,3.6,0.0,0.0,0,1025.3,1,1,"",93
"2021-03-16 04:11:00",4.6,3.6,0.0,0.0,0,1025.3,1,2,"",93
"2021-03-16 04:12:00",4.6,3.6,0.0,0.0,0,1025.3,1,2,"",93
"2021-03-16 04:13:00",4.6,3.6,0.0,0.0,0,1025.3,1,2,"",93
"2021-03-16 04:14:00",4.6,3.6,0.0,0.0,0,1025.3,1,2,"",93
"2021-03-16 04:15:00",4.6,3.6,0.0,0.0,0,1025.3,1,2,"",93
"2021-03-16 04:16:00",4.6,3.6,0.0,0.0,0,1025.4,1,2,"",93
"2021-03-16 04:17:00",4.6,3.6,0.0,0.0,0,1025.3,1,2,"",93
"2021-03-16 04:18:00",4.6,3.6,0.0,0.0,0,1025.4,1,2,"",93
"2021-03-16 04:19:00",4.6,3.6,0.0,0.0,0,1025.4,1,2,"",93
"2021-03-16 04:20:00",4.6,3.6,0.0,0.0,0,1025.4,1,2,"",93
"2021-03-16 04:21:00",4.6,3.6,0.0,0.0,0,1025.4,1,2,"",93
"2021-03-16 04:22:00",4.6,3.6,0.0,0.0,0,1025.4,0,1,"",93
"2021-03-16 04:23:00",4.6,3.6,0.0,0.0,0,1025.4,0,1,"",93
"2021-03-16 04:24:00",4.6,3.6,0.0,0.0,0,1025.4,0,1,"",93
"2021-03-16 04:25:00",4.6,3.6,0.0,0.0,0,1025.4,0,1,"",93
"2021-03-16 04:26:00",4.6,3.6,0.0,0.0,0,1025.4,0,1,"",93
"2021-03-16 04:27:00",4.6,3.6,0.0,0.0,0,1025.4,0,0,"",93
"2021-03-16 04:28:00",4.7,3.7,0.0,0.0,0,1025.4,1,1,"",93
"2021-03-16 04:29:00",4.6,3.6,0.0,0.0,0,1025.4,0,1,"",93
"2021-03-16 04:30:00",4.7,3.7,0.0,0.0,0,1025.4,1,1,"",93
"2021-03-16 04:31:00",4.7,3.7,0.0,0.0,0,1025.4,1,2,"",93
"2021-03-16 04:32:00",4.7,3.7,0.0,0.0,0,1025.4,1,1,"",93
"2021-03-16 04:33:00",4.7,3.7,0.0,0.0,0,1025.4,1,1,"",93
"2021-03-16 04:34:00",4.7,3.7,0.0,0.0,0,1025.4,1,1,"",93
"2021-03-16 04:35:00",4.7,3.7,0.0,0.0,0,1025.4,0,1,"",93
"2021-03-16 04:36:00",4.7,3.7,0.0,0.0,0,1025.3,0,1,"",93
"2021-03-16 04:37:00",4.7,3.7,0.0,0.0,0,1025.3,0,1,"",93
"2021-03-16 04:38:00",4.7,3.7,0.0,0.0,0,1025.3,0,1,"",93
"2021-03-16 04:39:00",4.7,3.7,0.0,0.0,0,1025.3,0,1,"",93
"2021-03-16 04:40:00",4.7,3.7,0.0,0.0,0,1025.3,0,1,"",93
"2021-03-16 04:41:00",4.7,3.7,0.0,0.0,0,1025.3,0,1,"",93
"2021-03-16 08:53:00",11.1,9.5,0.0,0.0,100,1025.5,0,1,"",90
"2021-03-16 08:54:00",11.0,9.4,0.0,0.0,100,1025.6,1,3,"",90
"2021-03-16 08:55:00",11.0,9.4,0.0,0.0,98,1025.5,1,2,"",90
"2021-03-16 08:56:00",11.0,9.4,0.0,0.0,74,1025.5,0,2,"",90
"2021-03-16 08:57:00",11.0,9.4,0.0,0.0,81,1025.6,1,2,"",90
"2021-03-16 08:58:00",11.0,9.3,0.0,0.0,95,1025.5,1,3,"",89
"2021-03-16 08:59:00",10.9,9.3,0.0,0.5,111,1025.6,1,2,"",90
"2021-03-16 09:00:00",10.9,9.3,0.0,0.0,120,1025.6,1,2,"",90
"2021-03-16 09:01:00",10.9,9.2,0.0,0.0,98,1025.6,0,1,"",89
"2021-03-16 09:02:00",10.9,9.3,0.0,0.0,88,1025.5,1,2,"",90
"2021-03-16 09:03:00",10.9,9.5,0.0,0.5,97,1025.6,1,2,"",91
"2021-03-16 09:04:00",10.9,9.3,0.0,0.6,91,1025.5,0,1,"",90
"2021-03-16 09:05:00",11.0,9.6,0.0,0.6,95,1025.5,1,2,"",91
"2021-03-16 09:06:00",11.0,9.6,0.0,0.6,97,1025.5,1,2,"",91
"2021-03-16 09:07:00",11.1,9.5,0.0,0.6,98,1025.5,0,1,"",90
"2021-03-16 09:08:00",11.0,9.4,0.0,0.7,128,1025.5,1,2,"",90
"2021-03-16 09:09:00",11.1,9.5,0.0,0.7,109,1025.5,1,2,"",90
"2021-03-16 09:10:00",11.1,9.5,0.0,1.0,181,1025.5,1,2,"",90
"2021-03-16 09:11:00",11.1,9.7,0.0,0.9,181,1025.5,1,2,"",91
"2021-03-16 09:12:00",11.2,9.8,0.0,1.1,318,1025.5,0,1,"",91
"2021-03-16 09:13:00",11.2,9.6,0.0,1.2,411,1025.4,1,2,"",90
"2021-03-16 09:14:00",11.3,9.7,0.0,1.0,441,1025.4,0,1,"",90
"2021-03-16 09:15:00",11.4,9.8,0.0,0.9,360,1025.4,0,1,"",90
"2021-03-16 09:16:00",11.5,9.7,0.0,1.0,360,1025.4,1,2,"",89
"2021-03-16 09:17:00",11.6,9.8,0.0,1.3,485,1025.4,1,3,"",89
"2021-03-16 09:18:00",11.7,9.9,0.0,1.3,499,1025.4,1,3,"",89
"2021-03-16 09:19:00",11.9,10.1,0.0,1.0,499,1025.3,2,3,"",89
"2021-03-16 09:20:00",12.1,10.3,0.0,1.0,232,1025.3,2,3,"",89
"2021-03-16 09:21:00",12.2,10.3,0.0,1.2,232,1025.4,1,3,"",88
"2021-03-16 09:22:00",12.2,10.1,0.0,1.3,422,1025.4,1,3,"",87
"2021-03-16 09:23:00",12.4,10.5,0.0,1.1,441,1025.4,1,2,"",88
"2021-03-16 09:24:00",12.4,10.1,0.0,1.3,441,1025.3,2,4,"",86
"2021-03-16 09:25:00",12.3,10.2,0.0,1.3,311,1025.3,1,3,"",87
"2021-03-16 09:26:00",12.4,10.5,0.0,1.4,311,1025.4,3,6,"",88
"2021-03-16 09:27:00",12.4,10.1,0.0,1.3,251,1025.4,3,6,"",86
"2021-03-16 09:28:00",12.5,10.2,0.0,1.3,251,1025.3,1,2,"",86
"2021-03-16 09:29:00",12.7,10.6,0.0,1.4,251,1025.4,2,3,"",87
"2021-03-16 09:30:00",12.8,10.5,0.0,1.1,232,1025.3,2,3,"",86
"2021-03-16 09:31:00",12.9,10.6,0.0,1.1,279,1025.3,2,3,"",86
"2021-03-16 09:32:00",13.0,10.5,0.0,0.7,60,1025.4,2,3,"",85
"2021-03-16 09:33:00",12.9,10.3,0.0,1.1,60,1025.3,2,3,"",84
"2021-03-16 09:34:00",12.8,10.2,0.0,1.4,172,1025.3,2,4,"",84
"2021-03-16 09:35:00",12.8,10.3,0.0,1.4,109,1025.4,2,4,"",85
"2021-03-16 09:36:00",12.7,9.9,0.0,1.3,113,1025.3,2,3,"",83
"2021-03-16 09:37:00",12.8,10.0,0.0,1.1,113,1025.3,3,5,"",83
"2021-03-16 09:38:00",12.8,10.3,0.0,1.7,113,1025.3,1,2,"",85
"2021-03-16 09:39:00",12.9,10.1,0.0,1.5,330,1025.3,2,3,"",83
"2021-03-16 09:40:00",13.1,10.5,0.0,1.1,330,1025.3,1,3,"",84
"2021-03-16 09:41:00",13.1,10.1,0.0,1.2,204,1025.3,2,4,"",82
"2021-03-16 09:42:00",13.1,10.5,0.0,1.8,204,1025.3,1,2,"",84
"2021-03-16 09:43:00",13.2,10.4,0.0,1.9,599,1025.2,3,7,"",83
"2021-03-16 09:44:00",13.3,10.5,0.0,1.6,599,1025.2,2,4,"",83
"2021-03-16 09:45:00",13.4,10.6,0.0,1.8,599,1025.2,2,3,"",83
"2021-03-16 09:46:00",13.6,10.6,0.0,1.2,599,1025.3,2,4,"",82
"2021-03-16 09:47:00",13.6,10.6,0.0,1.1,599,1025.3,3,6,"",82
"2021-03-16 09:48:00",13.7,10.5,0.0,1.1,207,1025.3,2,3,"",81
"2021-03-16 09:49:00",13.6,10.4,0.0,1.1,216,1025.2,2,4,"",81
"2021-03-16 09:50:00",13.6,10.4,0.0,0.9,149,1025.2,1,3,"",81
"2021-03-16 09:51:00",13.4,10.0,0.0,0.7,127,1025.3,3,5,"",80
"2021-03-16 09:52:00",13.4,10.2,0.0,0.9,158,1025.3,2,3,"",81
"2021-03-16 09:53:00",13.3,10.3,0.0,0.7,139,1025.3,2,4,"",82
"2021-03-16 09:54:00",13.3,10.1,0.0,0.6,123,1025.3,2,3,"",81
"2021-03-16 09:55:00",13.2,10.0,0.0,0.5,86,1025.3,4,8,"",81
"2021-03-16 09:56:00",13.2,10.0,0.0,0.0,83,1025.4,2,3,"",81
"2021-03-16 09:57:00",13.1,9.9,0.0,0.0,77,1025.4,2,2,"",81
"2021-03-16 09:58:00",12.9,9.7,0.0,0.5,95,1025.4,1,3,"",81
"2021-03-16 09:59:00",12.9,9.7,0.0,0.6,116,1025.4,1,3,"",81
"2021-03-16 10:00:00",12.8,9.4,0.0,0.6,120,1025.4,1,2,"",80
"2021-03-16 10:01:00",12.8,9.6,0.0,0.6,141,1025.4,2,5,"",81
"2021-03-16 10:02:00",12.8,9.6,0.0,0.7,111,1025.3,3,7,"",81
"2021-03-16 10:03:00",12.7,9.7,0.0,0.0,93,1025.4,2,5,"",82
"2021-03-16 10:04:00",12.7,9.7,0.0,0.0,77,1025.4,2,3,"",82
"2021-03-16 10:05:00",12.7,9.7,0.0,0.5,88,1025.4,1,2,"",82
"2021-03-16 10:06:00",12.6,9.6,0.0,0.6,107,1025.3,2,3,"",82
"2021-03-16 10:07:00",12.6,9.4,0.0,0.7,118,1025.4,2,3,"",81
"2021-03-16 10:08:00",12.6,9.6,0.0,0.7,123,1025.4,2,5,"",82
"2021-03-16 10:09:00",12.6,9.6,0.0,0.7,132,1025.3,2,5,"",82
"2021-03-16 10:10:00",12.5,9.3,0.0,0.7,134,1025.4,2,5,"",81
"2021-03-16 10:11:00",12.5,9.5,0.0,0.6,128,1025.4,2,4,"",82
"2021-03-16 10:12:00",12.5,9.5,0.0,0.6,118,1025.4,1,3,"",82
"2021-03-16 10:13:00",12.5,9.3,0.0,0.6,86,1025.4,1,1,"",81
"2021-03-16 10:14:00",12.5,9.3,0.0,0.5,84,1025.4,1,2,"",81
"2021-03-16 10:15:00",12.5,9.3,0.0,0.5,84,1025.4,2,3,"",81
"2021-03-16 10:16:00",12.5,9.5,0.0,0.5,84,1025.4,1,2,"",82
"2021-03-16 10:17:00",12.6,9.8,0.0,0.5,86,1025.4,1,2,"",83
"2021-03-16 10:18:00",12.5,9.5,0.0,0.0,77,1025.4,2,4,"",82
"2021-03-16 10:19:00",12.4,9.4,0.0,0.0,69,1025.5,2,4,"",82
"2021-03-16 10:20:00",12.4,9.4,0.0,0.0,67,1025.4,2,5,"",82
"2021-03-16 10:21:00",12.4,9.4,0.0,0.0,65,1025.5,3,6,"",82
"2021-03-16 10:22:00",12.3,9.3,0.0,0.0,67,1025.4,3,6,"",82
"2021-03-16 10:23:00",12.3,9.1,0.0,0.0,62,1025.5,1,2,"",81
"2021-03-16 10:24:00",12.3,9.3,0.0,0.0,56,1025.4,2,3,"",82
"2021-03-16 10:25:00",12.2,9.4,0.0,0.0,47,1025.4,1,2,"",83
"2021-03-16 10:26:00",12.2,9.2,0.0,0.0,49,1025.4,2,3,"",82
"2021-03-16 10:27:00",12.2,9.2,0.0,0.0,58,1025.5,2,3,"",82
"2021-03-16 10:28:00",12.2,9.4,0.0,0.0,62,1025.5,1,3,"",83
"2021-03-16 10:29:00",12.1,9.3,0.0,0.0,63,1025.5,1,3,"",83
"2021-03-16 10:30:00",12.1,9.3,0.0,0.5,69,1025.6,1,2,"",83
"2021-03-16 10:31:00",12.1,9.3,0.0,0.5,74,1025.5,1,2,"",83
"2021-03-16 10:32:00",12.1,9.1,0.0,0.6,83,1025.5,2,3,"",82
"2021-03-16 10:33:00",12.1,9.3,0.0,0.6,84,1025.5,1,3,"",83
"2021-03-16 10:34:00",12.1,9.3,0.0,0.6,86,1025.5,1,2,"",83
"2021-03-16 10:35:00",12.2,9.4,0.0,0.6,100,1025.6,1,2,"",83
"2021-03-16 10:36:00",12.1,9.3,0.0,0.6,113,1025.5,1,3,"",83
"2021-03-16 10:37:00",12.2,9.6,0.0,0.7,118,1025.5,1,3,"",84
"2021-03-16 10:38:00",12.2,9.6,0.0,0.7,109,1025.5,1,3,"",84
"2021-03-16 10:39:00",12.2,9.6,0.0,0.7,118,1025.4,2,4,"",84
"2021-03-16 10:40:00",12.2,9.4,0.0,0.6,114,1025.4,1,3,"",83
"2021-03-16 10:41:00",12.2,9.4,0.0,0.6,109,1025.5,1,3,"",83
"2021-03-16 10:42:00",12.2,9.6,0.0,0.6,113,1025.4,1,3,"",84
"2021-03-16 10:43:00",12.3,9.7,0.0,0.7,123,1025.5,0,2,"",84
"2021-03-16 10:44:00",12.2,9.8,0.0,0.7,125,1025.5,1,3,"",85
"2021-03-16 10:45:00",12.3,9.5,0.0,0.7,127,1025.5,1,2,"",83
"2021-03-16 10:46:00",12.3,9.5,0.0,0.9,146,1025.5,1,2,"",83
"2021-03-16 10:47:00",12.3,9.7,0.0,1.1,176,1025.5,1,3,"",84
"2021-03-16 10:48:00",12.4,9.6,0.0,1.1,202,1025.5,2,2,"",83
"2021-03-16 10:49:00",12.4,9.6,0.0,1.0,178,1025.5,1,2,"",83
"2021-03-16 10:50:00",12.5,9.7,0.0,1.0,171,1025.4,3,8,"",83
"2021-03-16 10:51:00",12.6,9.8,0.0,1.0,167,1025.4,3,5,"",83
"2021-03-16 10:52:00",12.7,9.9,0.0,0.9,163,1025.4,1,3,"",83
"2021-03-16 10:53:00",12.7,9.7,0.0,0.9,149,1025.4,1,3,"",82
"2021-03-16 10:54:00",12.7,9.5,0.0,0.9,169,1025.4,1,2,"",81
"2021-03-16 10:55:00",12.7,9.7,0.0,0.9,160,1025.4,1,4,"",82
"2021-03-16 10:56:00",12.8,9.8,0.0,0.9,169,1025.4,3,6,"",82
"2021-03-16 10:57:00",12.8,9.6,0.0,0.9,174,1025.4,2,4,"",81
"2021-03-16 10:58:00",12.8,9.6,0.0,1.0,172,1025.4,2,3,"",81
"2021-03-16 10:59:00",12.8,9.6,0.0,0.9,167,1025.3,1,2,"",81
"2021-03-16 11:00:00",12.9,9.5,0.0,0.8,137,1025.3,1,2,"",80
"2021-03-16 11:01:00",12.9,9.9,0.0,0.8,127,1025.3,1,3,"",82
"2021-03-16 11:02:00",12.9,9.9,0.0,0.7,116,1025.3,3,5,"",82